Weather History for KMCD - June, 2014

Change the Weather History Date:

Tuesday, June 10, 2014

  Actual Average Record
Temperature  
Mean Temperature 61 °F -  
Max Temperature 74 °F 63 °F 83 °F (2012)
Min Temperature 48 °F 48 °F 36 °F (1977)
Degree Days  
Heating Degree Days 4    
Growing Degree Days 11 (Base 50)    
Moisture  
Dew Point 44 °F    
Average Humidity 55    
Maximum Humidity 87    
Minimum Humidity 29    
Precipitation  
Precipitation 0.00 in - - ()
Sea Level Pressure  
Sea Level Pressure 30.00 in    
Wind  
Wind Speed 5 mph (ENE)    
Max Wind Speed 8 mph    
Max Gust Speed -    
Visibility 10 miles    
Events      
Averages and records for this station are not official NWS values.
T = Trace of Precipitation, MM = Missing Value Source: NWS Daily Summary

Daily Weather History Graph

Daily Weather History Graph

Search for Another Location

Airport or City:

Trip Planner

Search our weather history database for the weather conditions in past years. The results will help you decide how hot, cold, wet, or windy it might be!

Date:

Astronomy

Jun. 10, 2014 Rise Set
Actual Time 5:48 AM EDT 9:28 PM EDT
Civil Twilight 5:10 AM EDT 10:06 PM EDT
Nautical Twilight 4:19 AM EDT 10:57 PM EDT
Astronomical Twilight 3:10 AM EDT 12:06 AM EDT
Moon 6:45 PM EDT (6/10) 4:02 AM EDT (6/10)
Length of Visible Light 16h 55m
Length of Day
15h 39m
Waxing Gibbous, 92% of the Moon is Illuminated
Jun 10
Waxing Gibbous
Jun 13
Full
Jun 19
Last Quarter
Jun 27
New
Jul 5
First Quarter

Hourly Weather History & Observations

Time (EDT) Temp. Dew Point Humidity Pressure Visibility Wind Dir Wind Speed Gust Speed Precip Events Conditions
12:19 AM 54.9 °F 40.1 °F 58% 30.01 in 10.0 mi East 5.8 mph - N/A   Clear
12:39 AM 53.6 °F 39.9 °F 60% 30.01 in 10.0 mi East 3.5 mph - N/A   Clear
12:59 AM 52.2 °F 40.8 °F 65% 30.01 in 10.0 mi ENE 5.8 mph - N/A   Clear
1:19 AM 51.3 °F 41.2 °F 68% 30.02 in 10.0 mi ENE 4.6 mph - N/A   Clear
1:39 AM 51.8 °F 40.8 °F 66% 30.02 in 10.0 mi Calm Calm - N/A   Clear
1:59 AM 50.7 °F 40.3 °F 67% 30.02 in 10.0 mi NE 3.5 mph - N/A   Clear
2:20 AM 50.0 °F 40.3 °F 69% 30.01 in 10.0 mi NE 3.5 mph - N/A   Clear
2:39 AM 49.6 °F 40.5 °F 71% 30.01 in 10.0 mi Calm Calm - N/A   Clear
2:59 AM 48.7 °F 39.9 °F 72% 30.01 in 10.0 mi North 5.8 mph - N/A   Clear
3:20 AM 49.3 °F 42.1 °F 76% 30.01 in 10.0 mi North 5.8 mph - N/A   Clear
3:39 AM 49.6 °F 45.3 °F 85% 30.01 in 10.0 mi NNE 6.9 mph - N/A   Clear
4:00 AM 50.2 °F 45.3 °F 83% 30.01 in 10.0 mi NNE 6.9 mph - N/A   Clear
4:19 AM 50.0 °F 45.5 °F 85% 30.01 in 10.0 mi NNE 6.9 mph - N/A   Clear
4:39 AM 50.7 °F 45.0 °F 81% 30.01 in 10.0 mi NNE 5.8 mph - N/A   Clear
5:19 AM 50.4 °F 45.0 °F 82% 30.01 in 10.0 mi NNE 4.6 mph - N/A   Clear
5:39 AM 49.8 °F 45.0 °F 83% 30.01 in 10.0 mi NNE 5.8 mph - N/A   Clear
6:00 AM 50.0 °F 45.5 °F 85% 30.01 in 10.0 mi NNE 5.8 mph - N/A   Clear
6:19 AM 50.0 °F 45.9 °F 86% 30.01 in 10.0 mi NNE 5.8 mph - N/A   Clear
6:39 AM 50.9 °F 47.1 °F 87% 30.02 in 10.0 mi NNE 5.8 mph - N/A   Clear
7:00 AM 53.6 °F 47.3 °F 79% 30.02 in 10.0 mi NE 5.8 mph - N/A   Clear
7:19 AM 55.2 °F 47.7 °F 76% 30.02 in 10.0 mi NE 6.9 mph - N/A   Clear
7:40 AM 56.7 °F 47.8 °F 72% 30.02 in 10.0 mi NE 5.8 mph - N/A   Clear
7:59 AM 58.3 °F 48.6 °F 70% 30.03 in 10.0 mi ENE 4.6 mph - N/A   Clear
8:19 AM 60.1 °F 50.9 °F 72% 30.03 in 10.0 mi NE 4.6 mph - N/A   Clear
8:39 AM 61.9 °F 49.1 °F 63% 30.04 in 10.0 mi ENE 5.8 mph - N/A   Clear
8:59 AM 62.4 °F 46.2 °F 55% 30.04 in 10.0 mi ENE 6.9 mph - N/A   Clear
9:19 AM 62.4 °F 47.5 °F 58% 30.03 in 10.0 mi ENE 5.8 mph - N/A   Clear
9:39 AM 62.6 °F 47.7 °F 58% 30.03 in 10.0 mi ENE 4.6 mph - N/A   Clear
9:59 AM 63.1 °F 48.0 °F 58% 30.03 in 10.0 mi NE 5.8 mph - N/A   Clear
10:19 AM 64.4 °F 47.8 °F 55% 30.03 in 10.0 mi ENE 5.8 mph - N/A   Clear
10:39 AM 64.9 °F 47.3 °F 53% 30.03 in 10.0 mi ENE 5.8 mph - N/A   Clear
11:00 AM 65.5 °F 47.3 °F 52% 30.02 in 10.0 mi ENE 4.6 mph - N/A   Clear
11:19 AM 66.7 °F 47.1 °F 49% 30.02 in 10.0 mi ENE 3.5 mph - N/A   Clear
11:39 AM 67.1 °F 47.1 °F 49% 30.02 in 10.0 mi East 4.6 mph - N/A   Clear
11:59 AM 68.4 °F 46.4 °F 45% 30.02 in 10.0 mi East 4.6 mph - N/A   Clear
12:19 PM 69.6 °F 45.9 °F 43% 30.03 in 10.0 mi East 4.6 mph - N/A   Clear
12:40 PM 68.5 °F 46.2 °F 45% 30.03 in 10.0 mi SE 5.8 mph - N/A   Clear
1:19 PM 71.8 °F 45.9 °F 39% 30.02 in 10.0 mi Calm Calm - N/A   Clear
1:40 PM 72.0 °F 43.7 °F 36% 30.02 in 10.0 mi East 4.6 mph - N/A   Clear
1:59 PM 71.8 °F 43.5 °F 36% 30.02 in 7.0 mi East 8.1 mph - N/A   Clear
2:20 PM 72.5 °F 43.2 °F 35% 30.01 in 10.0 mi ESE 4.6 mph - N/A   Clear
2:39 PM 72.5 °F 44.8 °F 37% 30.01 in 10.0 mi East 5.8 mph - N/A   Clear
3:20 PM 72.9 °F 42.8 °F 34% 30.01 in 10.0 mi East 8.1 mph - N/A   Clear
3:40 PM 72.7 °F 41.7 °F 33% 30.01 in 4.0 mi ESE 5.8 mph - N/A   Haze
3:59 PM 73.2 °F 40.8 °F 31% 30.00 in 7.0 mi ESE 6.9 mph - N/A   Clear
4:20 PM 74.3 °F 41.2 °F 30% 29.99 in 10.0 mi ESE 5.8 mph - N/A   Clear
4:39 PM 72.9 °F 39.4 °F 30% 29.99 in 10.0 mi Calm Calm - N/A   Clear
5:19 PM 72.5 °F 38.1 °F 29% 30.00 in 10.0 mi ESE 4.6 mph - N/A   Clear
5:39 PM 72.0 °F 38.3 °F 29% 29.99 in 10.0 mi SSE 5.8 mph - N/A   Clear
6:00 PM 71.6 °F 41.9 °F 34% 29.99 in 10.0 mi Calm Calm - N/A   Clear
6:19 PM 71.8 °F 41.4 °F 33% 29.98 in 10.0 mi ESE 3.5 mph - N/A   Clear
6:39 PM 71.6 °F 39.2 °F 31% 29.98 in 10.0 mi Calm Calm - N/A   Clear
7:00 PM 69.1 °F 43.3 °F 39% 29.98 in 10.0 mi East 5.8 mph - N/A   Clear
7:19 PM 68.2 °F 43.3 °F 41% 29.98 in 10.0 mi East 5.8 mph - N/A   Clear
7:39 PM 67.6 °F 44.2 °F 43% 29.97 in 10.0 mi East 6.9 mph - N/A   Clear
8:00 PM 67.3 °F 42.3 °F 40% 29.97 in 10.0 mi East 6.9 mph - N/A   Clear
8:19 PM 66.7 °F 40.6 °F 39% 29.97 in 10.0 mi East 8.1 mph - N/A   Clear
8:39 PM 66.6 °F 39.6 °F 37% 29.97 in 10.0 mi ENE 5.8 mph - N/A   Clear
9:00 PM 65.3 °F 41.7 °F 42% 29.96 in 10.0 mi East 6.9 mph - N/A   Clear
9:19 PM 64.6 °F 41.9 °F 44% 29.96 in 10.0 mi SE 5.8 mph - N/A   Clear
9:40 PM 62.4 °F 43.5 °F 50% 29.96 in 10.0 mi ESE 6.9 mph - N/A   Clear
9:59 PM 64.8 °F 42.1 °F 44% 29.96 in 10.0 mi SE 6.9 mph - N/A   Clear
10:19 PM 64.9 °F 42.1 °F 43% 29.97 in 10.0 mi ESE 6.9 mph - N/A   Clear
10:40 PM 61.9 °F 43.9 °F 52% 29.97 in 10.0 mi ESE 4.6 mph - N/A   Clear
10:59 PM 59.2 °F 46.6 °F 63% 29.97 in 10.0 mi ESE 4.6 mph - N/A   Clear
11:19 PM 58.5 °F 49.1 °F 71% 29.97 in 10.0 mi East 3.5 mph - N/A   Clear
11:40 PM 59.0 °F 49.3 °F 70% 29.96 in 10.0 mi ESE 4.6 mph - N/A   Clear
11:59 PM 59.0 °F 48.6 °F 68% 29.96 in 10.0 mi East 4.6 mph - N/A   Clear